Change the Weather History Date:

Saturday, June 15, 2013

  Actual Average Record
Temperature  
Mean Temperature 54 °F -  
Max Temperature 60 °F 62 °F 66 °F (2011)
Min Temperature 49 °F 53 °F 49 °F (2012)
Degree Days  
Heating Degree Days 10    
Growing Degree Days 4 (Base 50)    
Moisture  
Dew Point 49 °F    
Average Humidity 76    
Maximum Humidity 88    
Minimum Humidity 60    
Precipitation  
Precipitation 0.02 in - - ()
Sea Level Pressure  
Sea Level Pressure 29.61 in    
Wind  
Wind Speed 18 mph ()    
Max Wind Speed 28 mph    
Max Gust Speed -    
Visibility 6.2 miles    
Events Rain    
Averages and records for this station are not official NWS values.
T = Trace of Precipitation, MM = Missing Value Source: Averaged Metar Reports

Daily Weather History Graph

Daily Weather History Graph

Search for Another Location

Airport or City:

Trip Planner

Search our weather history database for the weather conditions in past years. The results will help you decide how hot, cold, wet, or windy it might be!

Date:

Astronomy

Jun. 15, 2013 Rise Set
Actual Time 4:40 AM BST 9:44 PM BST
Civil Twilight 3:47 AM BST 10:38 PM BST
Nautical Twilight 2:07 AM BST 12:18 AM BST
Astronomical Twilight Sun does not rise Sun does not rise
Moon 11:55 AM BST (6/15) 12:23 AM BST (6/15)
Length of Visible Light 18h 51m
Length of Day
17h 03m
Waxing Crescent, 37% of the Moon is Illuminated
Jun 15
Waxing Crescent
Jun 16
First Quarter
Jun 23
Full
Jun 30
Last Quarter
Jul 8
New

Hourly Weather History & Observations

Time (BST) Temp. Dew Point Humidity Pressure Visibility Wind Dir Wind Speed Gust Speed Precip Events Conditions
12:50 AM 53 °F 49 °F 83%  in - South 20.7 mph - -  
3:50 AM 51 °F 47 °F 83%  in - WSW 23.0 mph - -  
6:20 AM 51.8 °F 46.4 °F 82% 29.56 in 6.2 mi SW 17.3 mph - N/A Rain Light Rain Showers
6:50 AM 51 °F 46 °F 77%  in - SW 19.6 mph - -  
6:50 AM 51.8 °F 46.4 °F 82% 29.56 in 6.2 mi SW 18.4 mph - N/A   Mostly Cloudy
7:20 AM 51.8 °F 48.2 °F 88% 29.56 in 6.2 mi SW 17.3 mph - N/A   Scattered Clouds
7:50 AM 51.8 °F 46.4 °F 82% 29.56 in 6.2 mi SW 18.4 mph - N/A   Mostly Cloudy
8:20 AM 53.6 °F 48.2 °F 82% 29.59 in 6.2 mi SW 20.7 mph - N/A   Scattered Clouds
8:50 AM 53.6 °F 46.4 °F 77% 29.59 in 6.2 mi SW 18.4 mph - N/A   Scattered Clouds
9:20 AM 53.6 °F 48.2 °F 82% 29.59 in 6.2 mi SW 20.7 mph - N/A   Scattered Clouds
9:50 AM 54 °F 47 °F 69%  in - WSW 21.9 mph - -  
9:50 AM 55.4 °F 48.2 °F 77% 29.59 in 6.2 mi SW 19.6 mph - N/A   Partly Cloudy
10:20 AM 57.2 °F 48.2 °F 72% 29.59 in 6.2 mi SW 19.6 mph - N/A   Partly Cloudy
10:50 AM 57.2 °F 48.2 °F 72% 29.62 in 6.2 mi SW 18.4 mph - N/A   Partly Cloudy
11:20 AM 57.2 °F 48.2 °F 72% 29.62 in 6.2 mi SW 18.4 mph - N/A   Partly Cloudy
11:50 AM 59.0 °F 48.2 °F 67% 29.62 in 6.2 mi SW 18.4 mph - N/A   Partly Cloudy
12:20 PM 57.2 °F 48.2 °F 72% 29.62 in 6.2 mi SW 18.4 mph - N/A   Partly Cloudy
12:50 PM 57 °F 47 °F 60%  in - WSW 23.0 mph - -  
12:50 PM 59.0 °F 48.2 °F 67% 29.62 in 6.2 mi SW 19.6 mph - N/A   Partly Cloudy
1:20 PM 59.0 °F 48.2 °F 67% 29.62 in 6.2 mi SW 17.3 mph - N/A   Partly Cloudy
1:50 PM 59.0 °F 46.4 °F 63% 29.62 in 6.2 mi SW 17.3 mph - N/A   Partly Cloudy
2:20 PM 59.0 °F 48.2 °F 67% 29.62 in 6.2 mi WSW 16.1 mph - N/A   Partly Cloudy
2:50 PM 59.0 °F 48.2 °F 67% 29.62 in 6.2 mi SW 18.4 mph - N/A   Scattered Clouds
3:20 PM 59.0 °F 48.2 °F 67% 29.62 in 6.2 mi SW 18.4 mph - N/A   Partly Cloudy
3:50 PM 59 °F 49 °F 60%  in - SW 19.6 mph - -  
3:50 PM 59.0 °F 50.0 °F 72% 29.62 in 6.2 mi SW 17.3 mph - N/A   Partly Cloudy
4:20 PM 59.0 °F 48.2 °F 67% 29.62 in 6.2 mi SW 17.3 mph - N/A   Partly Cloudy
4:50 PM 60.8 °F 50.0 °F 68% 29.62 in 6.2 mi SW 17.3 mph - N/A   Partly Cloudy
5:50 PM 59.0 °F 51.8 °F 77% 29.62 in 6.2 mi SW 15.0 mph - N/A   Partly Cloudy
6:20 PM 59.0 °F 51.8 °F 77% 29.62 in 6.2 mi SSW 15.0 mph - N/A   Partly Cloudy
6:50 PM 57.2 °F 51.8 °F 82% 29.62 in 6.2 mi SW 17.3 mph - N/A   Partly Cloudy
7:50 PM 59.0 °F 51.8 °F 77% 29.62 in 6.2 mi SW 20.7 mph - N/A   Partly Cloudy
8:20 PM 57.2 °F 51.8 °F 82% 29.62 in 6.2 mi SW 24.2 mph - N/A   Partly Cloudy
8:50 PM 57.2 °F 51.8 °F 82% 29.62 in 6.2 mi SW 23.0 mph - N/A   Partly Cloudy
9:20 PM 57.2 °F 51.8 °F 82% 29.62 in 6.2 mi SW 24.2 mph - N/A   Partly Cloudy
9:50 PM 55 °F 52 °F 85%  in - WSW 27.6 mph - -  
10:20 PM 55.4 °F 51.8 °F 88% 29.65 in 6.2 mi SW 24.2 mph - N/A   Partly Cloudy
10:50 PM 55.4 °F 51.8 °F 88% 29.65 in 6.2 mi SW 21.9 mph - N/A Rain Light Rain Showers
11:20 PM 55.4 °F 50.0 °F 82% 29.68 in 6.2 mi WSW 24.2 mph - N/A   Scattered Clouds
11:50 PM 53.6 °F 50.0 °F 88% 29.68 in 6.2 mi West 23.0 mph - N/A Rain Light Rain Showers